Year,Month,Day,Hour,Minute,Value (Times are PST for temperature in C)
2021,07,03,00,00,18.10
2021,07,03,00,01,18.10
2021,07,03,00,02,18.00
2021,07,03,00,03,18.00
2021,07,03,00,04,18.00
2021,07,03,00,05,18.00
2021,07,03,00,06,18.00
2021,07,03,00,07,17.90
2021,07,03,00,08,17.90
2021,07,03,00,09,17.90
2021,07,03,00,10,17.90
2021,07,03,00,11,17.90
2021,07,03,00,12,17.90
2021,07,03,00,13,17.90
2021,07,03,00,14,17.90
2021,07,03,00,15,17.90
2021,07,03,00,16,17.90
2021,07,03,00,17,17.90
2021,07,03,00,18,17.90
2021,07,03,00,19,17.80
2021,07,03,00,20,17.80
2021,07,03,00,21,17.80
2021,07,03,00,22,17.80
2021,07,03,00,23,17.80
2021,07,03,00,24,17.80
2021,07,03,00,25,17.80
2021,07,03,00,26,17.80
2021,07,03,00,27,17.70
2021,07,03,00,28,17.70
2021,07,03,00,29,17.70
2021,07,03,00,30,17.70
2021,07,03,00,31,17.70
2021,07,03,00,32,17.70
2021,07,03,00,33,17.70
2021,07,03,00,34,17.70
2021,07,03,00,35,17.70
2021,07,03,00,36,17.60
2021,07,03,00,37,17.60
2021,07,03,00,38,17.60
2021,07,03,00,39,17.60
2021,07,03,00,40,17.60
2021,07,03,00,41,17.60
2021,07,03,00,42,17.60
2021,07,03,00,43,17.60
2021,07,03,00,44,17.60
2021,07,03,00,45,17.60
2021,07,03,00,46,17.60
2021,07,03,00,47,17.70
2021,07,03,00,48,17.70
2021,07,03,00,49,17.60
2021,07,03,00,50,17.60
2021,07,03,00,51,17.60
2021,07,03,00,52,17.60
2021,07,03,00,53,17.60
2021,07,03,00,54,17.60
2021,07,03,00,55,17.60
2021,07,03,00,56,17.60
2021,07,03,00,57,17.60
2021,07,03,00,58,17.60
2021,07,03,00,59,17.60
2021,07,03,01,00,17.60
2021,07,03,01,01,17.60
2021,07,03,01,02,17.60
2021,07,03,01,03,17.60
2021,07,03,01,04,17.60
2021,07,03,01,05,17.60
2021,07,03,01,06,17.60
2021,07,03,01,07,17.60
2021,07,03,01,08,17.60
2021,07,03,01,09,17.60
2021,07,03,01,10,17.60
2021,07,03,01,11,17.60
2021,07,03,01,12,17.60
2021,07,03,01,13,17.60
2021,07,03,01,14,17.60
2021,07,03,01,15,17.60
2021,07,03,01,16,17.60
2021,07,03,01,17,17.60
2021,07,03,01,18,17.60
2021,07,03,01,19,17.60
2021,07,03,01,20,17.60
2021,07,03,01,21,17.50
2021,07,03,01,22,17.50
2021,07,03,01,23,17.50
2021,07,03,01,24,17.40
2021,07,03,01,25,17.40
2021,07,03,01,26,17.40
2021,07,03,01,27,17.40
2021,07,03,01,28,17.40
2021,07,03,01,29,17.40
2021,07,03,01,30,17.40
2021,07,03,01,31,17.30
2021,07,03,01,32,17.30
2021,07,03,01,33,17.30
2021,07,03,01,34,17.30
2021,07,03,01,35,17.30
2021,07,03,01,36,17.30
2021,07,03,01,37,17.30
2021,07,03,01,38,17.30
2021,07,03,01,39,17.30
2021,07,03,01,40,17.30
2021,07,03,01,41,17.30
2021,07,03,01,42,17.30
2021,07,03,01,43,17.40
2021,07,03,01,44,17.40
2021,07,03,01,45,17.40
2021,07,03,01,46,17.40
2021,07,03,01,47,17.40
2021,07,03,01,48,17.40
2021,07,03,01,49,17.40
2021,07,03,01,50,17.40
2021,07,03,01,51,17.50
2021,07,03,01,52,17.50
2021,07,03,01,53,17.50
2021,07,03,01,54,17.50
2021,07,03,01,55,17.50
2021,07,03,01,56,17.50
2021,07,03,01,57,17.50
2021,07,03,01,58,17.50
2021,07,03,01,59,17.50
2021,07,03,02,00,17.50
2021,07,03,02,01,17.50
2021,07,03,02,02,17.50
2021,07,03,02,03,17.40
2021,07,03,02,04,17.40
2021,07,03,02,05,17.30
2021,07,03,02,06,17.30
2021,07,03,02,07,17.20
2021,07,03,02,08,17.20
2021,07,03,02,09,17.20
2021,07,03,02,10,17.20
2021,07,03,02,11,17.20
2021,07,03,02,12,17.20
2021,07,03,02,13,17.30
2021,07,03,02,14,17.30
2021,07,03,02,15,17.30
2021,07,03,02,16,17.30
2021,07,03,02,17,17.30
2021,07,03,02,18,17.30
2021,07,03,02,19,17.30
2021,07,03,02,20,17.30
2021,07,03,02,21,17.30
2021,07,03,02,22,17.30
2021,07,03,02,23,17.30
2021,07,03,02,24,17.30
2021,07,03,02,25,17.30
2021,07,03,02,26,17.30
2021,07,03,02,27,17.30
2021,07,03,02,28,17.30
2021,07,03,02,29,17.30
2021,07,03,02,30,17.30
2021,07,03,02,31,17.30
2021,07,03,02,32,17.30
2021,07,03,02,33,17.30
2021,07,03,02,34,17.30
2021,07,03,02,35,17.30
2021,07,03,02,36,17.30
2021,07,03,02,37,17.30
2021,07,03,02,38,17.30
2021,07,03,02,39,17.30
2021,07,03,02,40,17.30
2021,07,03,02,41,17.30
2021,07,03,02,42,17.20
2021,07,03,02,43,17.20
2021,07,03,02,44,17.20
2021,07,03,02,45,17.20
2021,07,03,02,46,17.20
2021,07,03,02,47,17.20
2021,07,03,02,48,17.20
2021,07,03,02,49,17.20
2021,07,03,02,50,17.20
2021,07,03,02,51,17.20
2021,07,03,02,52,17.20
2021,07,03,02,53,17.20
2021,07,03,02,54,17.20
2021,07,03,02,55,17.20
2021,07,03,02,56,17.20
2021,07,03,02,57,17.20
2021,07,03,02,58,17.20
2021,07,03,02,59,17.20
2021,07,03,03,00,17.20
2021,07,03,03,01,17.10
2021,07,03,03,02,17.10
2021,07,03,03,03,17.10
2021,07,03,03,04,17.10
2021,07,03,03,05,17.10
2021,07,03,03,06,17.10
2021,07,03,03,07,17.10
2021,07,03,03,08,17.10
2021,07,03,03,09,17.10
2021,07,03,03,10,17.10
2021,07,03,03,11,17.00
2021,07,03,03,12,17.00
2021,07,03,03,13,17.00
2021,07,03,03,14,17.00
2021,07,03,03,15,16.90
2021,07,03,03,16,17.00
2021,07,03,03,17,16.90
2021,07,03,03,18,17.00
2021,07,03,03,19,17.00
2021,07,03,03,20,17.00
2021,07,03,03,21,17.00
2021,07,03,03,22,16.90
2021,07,03,03,23,16.90
2021,07,03,03,24,16.90
2021,07,03,03,25,16.90
2021,07,03,03,26,16.90
2021,07,03,03,27,16.90
2021,07,03,03,28,16.90
2021,07,03,03,29,16.90
2021,07,03,03,30,16.90
2021,07,03,03,31,16.90
2021,07,03,03,32,16.90
2021,07,03,03,33,16.90
2021,07,03,03,34,16.90
2021,07,03,03,35,16.90
2021,07,03,03,36,16.90
2021,07,03,03,37,16.90
2021,07,03,03,38,16.80
2021,07,03,03,39,16.80
2021,07,03,03,40,16.80
2021,07,03,03,41,16.80
2021,07,03,03,42,16.80
2021,07,03,03,43,16.70
2021,07,03,03,44,16.70
2021,07,03,03,45,16.70
2021,07,03,03,46,16.70
2021,07,03,03,47,16.70
2021,07,03,03,48,16.70
2021,07,03,03,49,16.70
2021,07,03,03,50,16.70
2021,07,03,03,51,16.70
2021,07,03,03,52,16.60
2021,07,03,03,53,16.60
2021,07,03,03,54,16.60
2021,07,03,03,55,16.60
2021,07,03,03,56,16.50
2021,07,03,03,57,16.50
2021,07,03,03,58,16.40
2021,07,03,03,59,16.40
2021,07,03,04,00,16.40
2021,07,03,04,01,16.40
2021,07,03,04,02,16.30
2021,07,03,04,03,16.30
2021,07,03,04,04,16.30
2021,07,03,04,05,16.30
2021,07,03,04,06,16.30
2021,07,03,04,07,16.30
2021,07,03,04,08,16.20
2021,07,03,04,09,16.20
2021,07,03,04,10,16.20
2021,07,03,04,11,16.30
2021,07,03,04,12,16.20
2021,07,03,04,13,16.30
2021,07,03,04,14,16.30
2021,07,03,04,15,16.30
2021,07,03,04,16,16.30
2021,07,03,04,17,16.30
2021,07,03,04,18,16.30
2021,07,03,04,19,16.20
2021,07,03,04,20,16.20
2021,07,03,04,21,16.20
2021,07,03,04,22,16.20
2021,07,03,04,23,16.20
2021,07,03,04,24,16.20
2021,07,03,04,25,16.20
2021,07,03,04,26,16.10
2021,07,03,04,27,16.10
2021,07,03,04,28,16.10
2021,07,03,04,29,16.10
2021,07,03,04,30,16.10
2021,07,03,04,31,16.10
2021,07,03,04,32,16.10
2021,07,03,04,33,16.10
2021,07,03,04,34,16.00
2021,07,03,04,35,16.00
2021,07,03,04,36,16.00
2021,07,03,04,37,16.00
2021,07,03,04,38,16.00
2021,07,03,04,39,15.90
2021,07,03,04,40,15.90
2021,07,03,04,41,15.90
2021,07,03,04,42,15.90
2021,07,03,04,43,15.80
2021,07,03,04,44,15.80
2021,07,03,04,45,15.80
2021,07,03,04,46,15.80
2021,07,03,04,47,15.80
2021,07,03,04,48,15.70
2021,07,03,04,49,15.70
2021,07,03,04,50,15.70
2021,07,03,04,51,15.70
2021,07,03,04,52,15.70
2021,07,03,04,53,15.70
2021,07,03,04,54,15.70
2021,07,03,04,55,15.70
2021,07,03,04,56,15.70
2021,07,03,04,57,15.70
2021,07,03,04,58,15.80
2021,07,03,04,59,15.70
2021,07,03,05,00,15.70
2021,07,03,05,01,15.70
2021,07,03,05,02,15.70
2021,07,03,05,03,15.70
2021,07,03,05,04,15.70
2021,07,03,05,05,15.70
2021,07,03,05,06,15.70
2021,07,03,05,07,15.70
2021,07,03,05,08,15.70
2021,07,03,05,09,15.70
2021,07,03,05,10,15.70
2021,07,03,05,11,15.70
2021,07,03,05,12,15.70
2021,07,03,05,13,15.70
2021,07,03,05,14,15.60
2021,07,03,05,15,15.60
2021,07,03,05,16,15.60
2021,07,03,05,17,15.60
2021,07,03,05,18,15.60
2021,07,03,05,19,15.60
2021,07,03,05,20,15.60
2021,07,03,05,21,15.60
2021,07,03,05,22,15.60
2021,07,03,05,23,15.60
2021,07,03,05,24,15.60
2021,07,03,05,25,15.60
2021,07,03,05,26,15.60
2021,07,03,05,27,15.60
2021,07,03,05,28,15.60
2021,07,03,05,29,15.60
2021,07,03,05,30,15.60
2021,07,03,05,31,15.60
2021,07,03,05,32,15.60
2021,07,03,05,33,15.60
2021,07,03,05,34,15.60
2021,07,03,05,35,15.60
2021,07,03,05,36,15.60
2021,07,03,05,37,15.60
2021,07,03,05,38,15.60
2021,07,03,05,39,15.60
2021,07,03,05,40,15.60
2021,07,03,05,41,15.70
2021,07,03,05,42,15.70
2021,07,03,05,43,15.70
2021,07,03,05,44,15.70
2021,07,03,05,45,15.70
2021,07,03,05,46,15.70
2021,07,03,05,47,15.70
2021,07,03,05,48,15.70
2021,07,03,05,49,15.70
2021,07,03,05,50,15.70
2021,07,03,05,51,15.70
2021,07,03,05,52,15.70
2021,07,03,05,53,15.60
2021,07,03,05,54,15.60
2021,07,03,05,55,15.60
2021,07,03,05,56,15.60
2021,07,03,05,57,15.60
2021,07,03,05,58,15.60
2021,07,03,05,59,15.60
2021,07,03,06,00,15.60
2021,07,03,06,01,15.60
2021,07,03,06,02,15.60
2021,07,03,06,03,15.60
2021,07,03,06,04,15.60
2021,07,03,06,05,15.60
2021,07,03,06,06,15.60
2021,07,03,06,07,15.60
2021,07,03,06,08,15.60
2021,07,03,06,09,15.70
2021,07,03,06,10,15.70
2021,07,03,06,11,15.70
2021,07,03,06,12,15.70
2021,07,03,06,13,15.70
2021,07,03,06,14,15.70
2021,07,03,06,15,15.70
2021,07,03,06,16,15.70
2021,07,03,06,17,15.70
2021,07,03,06,18,15.70
2021,07,03,06,19,15.70
2021,07,03,06,20,15.70
2021,07,03,06,21,15.70
2021,07,03,06,22,15.70
2021,07,03,06,23,15.70
2021,07,03,06,24,15.70
2021,07,03,06,25,15.70
2021,07,03,06,26,15.70
2021,07,03,06,27,15.80
2021,07,03,06,28,15.80
2021,07,03,06,29,15.80
2021,07,03,06,30,15.80
2021,07,03,06,31,15.80
2021,07,03,06,32,15.90
2021,07,03,06,33,15.90
2021,07,03,06,34,15.90
2021,07,03,06,35,15.90
2021,07,03,06,36,16.00
2021,07,03,06,37,16.00
2021,07,03,06,38,16.10
2021,07,03,06,39,16.10
2021,07,03,06,40,16.10
2021,07,03,06,41,16.20
2021,07,03,06,42,16.20
2021,07,03,06,43,16.20
2021,07,03,06,44,16.20
2021,07,03,06,45,16.20
2021,07,03,06,46,16.20
2021,07,03,06,47,16.20
2021,07,03,06,48,16.20
2021,07,03,06,49,16.20
2021,07,03,06,50,16.10
2021,07,03,06,51,16.10
2021,07,03,06,52,16.10
2021,07,03,06,53,16.10
2021,07,03,06,54,16.20
2021,07,03,06,55,16.10
2021,07,03,06,56,16.20
2021,07,03,06,57,16.20
2021,07,03,06,58,16.20
2021,07,03,06,59,16.20
2021,07,03,07,00,16.30
2021,07,03,07,01,16.30
2021,07,03,07,02,16.30
2021,07,03,07,03,16.40
2021,07,03,07,04,16.40
2021,07,03,07,05,16.40
2021,07,03,07,06,16.50
2021,07,03,07,07,16.60
2021,07,03,07,08,16.70
2021,07,03,07,09,16.80
2021,07,03,07,10,16.90
2021,07,03,07,11,17.00
2021,07,03,07,12,17.10
2021,07,03,07,13,17.20
2021,07,03,07,14,17.30
2021,07,03,07,15,17.30
2021,07,03,07,16,17.40
2021,07,03,07,17,17.50
2021,07,03,07,18,17.50
2021,07,03,07,19,17.60
2021,07,03,07,20,17.70
2021,07,03,07,21,17.70
2021,07,03,07,22,17.80
2021,07,03,07,23,17.90
2021,07,03,07,24,18.00
2021,07,03,07,25,18.20
2021,07,03,07,26,18.30
2021,07,03,07,27,18.40
2021,07,03,07,28,18.50
2021,07,03,07,29,18.60
2021,07,03,07,30,18.70
2021,07,03,07,31,18.80
2021,07,03,07,32,18.90
2021,07,03,07,33,18.90
2021,07,03,07,34,18.90
2021,07,03,07,35,19.00
2021,07,03,07,36,18.90
2021,07,03,07,37,18.90
2021,07,03,07,38,18.90
2021,07,03,07,39,18.80
2021,07,03,07,40,18.80
2021,07,03,07,41,18.80
2021,07,03,07,42,18.80
2021,07,03,07,43,18.80
2021,07,03,07,44,18.80
2021,07,03,07,45,18.80
2021,07,03,07,46,18.80
2021,07,03,07,47,18.80
2021,07,03,07,48,18.80
2021,07,03,07,49,18.80
2021,07,03,07,50,18.80
2021,07,03,07,51,18.70
2021,07,03,07,52,18.70
2021,07,03,07,53,18.60
2021,07,03,07,54,18.60
2021,07,03,07,55,18.70
2021,07,03,07,56,18.70
2021,07,03,07,57,18.60
2021,07,03,07,58,18.60
2021,07,03,07,59,18.60
2021,07,03,08,00,18.60
2021,07,03,08,01,18.60
2021,07,03,08,02,18.70
2021,07,03,08,03,18.80
2021,07,03,08,04,18.90
2021,07,03,08,05,19.00
2021,07,03,08,06,19.10
2021,07,03,08,07,19.20
2021,07,03,08,08,19.20
2021,07,03,08,09,19.30
2021,07,03,08,10,19.30
2021,07,03,08,11,19.40
2021,07,03,08,12,19.40
2021,07,03,08,13,19.40
2021,07,03,08,14,19.40
2021,07,03,08,15,19.50
2021,07,03,08,16,19.60
2021,07,03,08,17,19.50
2021,07,03,08,18,19.50
2021,07,03,08,19,19.60
2021,07,03,08,20,19.60
2021,07,03,08,21,19.70
2021,07,03,08,22,19.70
2021,07,03,08,23,19.70
2021,07,03,08,24,19.80
2021,07,03,08,25,19.70
2021,07,03,08,26,19.70
2021,07,03,08,27,19.70
2021,07,03,08,28,19.80
2021,07,03,08,29,19.80
2021,07,03,08,30,19.80
2021,07,03,08,31,19.90
2021,07,03,08,32,19.90
2021,07,03,08,33,20.00
2021,07,03,08,34,20.10
2021,07,03,08,35,20.10
2021,07,03,08,36,20.20
2021,07,03,08,37,20.30
2021,07,03,08,38,20.30
2021,07,03,08,39,20.40
2021,07,03,08,40,20.50
2021,07,03,08,41,20.50
2021,07,03,08,42,20.60
2021,07,03,08,43,20.70
2021,07,03,08,44,20.70
2021,07,03,08,45,20.70
2021,07,03,08,46,20.70
2021,07,03,08,47,20.60
2021,07,03,08,48,20.60
2021,07,03,08,49,20.60
2021,07,03,08,50,20.60
2021,07,03,08,51,20.70
2021,07,03,08,52,20.70
2021,07,03,08,53,20.70
2021,07,03,08,54,20.60
2021,07,03,08,55,20.60
2021,07,03,08,56,20.60
2021,07,03,08,57,20.60
2021,07,03,08,58,20.60
2021,07,03,08,59,20.60
2021,07,03,09,00,20.60
2021,07,03,09,01,20.70
2021,07,03,09,02,20.70
2021,07,03,09,03,20.70
2021,07,03,09,04,20.70
2021,07,03,09,05,20.70
2021,07,03,09,06,20.70
2021,07,03,09,07,20.70
2021,07,03,09,08,20.70
2021,07,03,09,09,20.60
2021,07,03,09,10,20.60
2021,07,03,09,11,20.60
2021,07,03,09,12,20.70
2021,07,03,09,13,20.70
2021,07,03,09,14,20.80
2021,07,03,09,15,20.80
2021,07,03,09,16,20.80
2021,07,03,09,17,20.90
2021,07,03,09,18,21.00
2021,07,03,09,19,21.00
2021,07,03,09,20,21.10
2021,07,03,09,21,21.10
2021,07,03,09,22,21.10
2021,07,03,09,23,21.10
2021,07,03,09,24,21.10
2021,07,03,09,25,21.10
2021,07,03,09,26,21.20
2021,07,03,09,27,21.20
2021,07,03,09,28,21.20
2021,07,03,09,29,21.20
2021,07,03,09,30,21.30
2021,07,03,09,31,21.30
2021,07,03,09,32,21.30
2021,07,03,09,33,21.30
2021,07,03,09,34,21.30
2021,07,03,09,35,21.30
2021,07,03,09,36,21.30
2021,07,03,09,37,21.30
2021,07,03,09,38,21.30
2021,07,03,09,39,21.30
2021,07,03,09,40,21.30
2021,07,03,09,41,21.30
2021,07,03,09,42,21.30
2021,07,03,09,43,21.30
2021,07,03,09,44,21.30
2021,07,03,09,45,21.30
2021,07,03,09,46,21.30
2021,07,03,09,47,21.30
2021,07,03,09,48,21.40
2021,07,03,09,49,21.40
2021,07,03,09,50,21.40
2021,07,03,09,51,21.50
2021,07,03,09,52,21.50
2021,07,03,09,53,21.50
2021,07,03,09,54,21.60
2021,07,03,09,55,21.60
2021,07,03,09,56,21.60
2021,07,03,09,57,21.60
2021,07,03,09,58,21.50
2021,07,03,09,59,21.50
2021,07,03,10,00,21.50
2021,07,03,10,01,21.50
2021,07,03,10,02,21.50
2021,07,03,10,03,21.40
2021,07,03,10,04,21.30
2021,07,03,10,05,21.30
2021,07,03,10,06,21.30
2021,07,03,10,07,21.30
2021,07,03,10,08,21.30
2021,07,03,10,09,21.40
2021,07,03,10,10,21.40
2021,07,03,10,11,21.40
2021,07,03,10,12,21.40
2021,07,03,10,13,21.50
2021,07,03,10,14,21.50
2021,07,03,10,15,21.60
2021,07,03,10,16,21.60
2021,07,03,10,17,21.70
2021,07,03,10,18,21.80
2021,07,03,10,19,21.90
2021,07,03,10,20,22.00
2021,07,03,10,21,22.10
2021,07,03,10,22,22.10
2021,07,03,10,23,22.10
2021,07,03,10,24,22.10
2021,07,03,10,25,22.20
2021,07,03,10,26,22.20
2021,07,03,10,27,22.10
2021,07,03,10,28,22.10
2021,07,03,10,29,22.10
2021,07,03,10,30,22.10
2021,07,03,10,31,22.10
2021,07,03,10,32,22.10
2021,07,03,10,33,22.00
2021,07,03,10,34,22.00
2021,07,03,10,35,22.00
2021,07,03,10,36,22.00
2021,07,03,10,37,22.10
2021,07,03,10,38,22.10
2021,07,03,10,39,22.10
2021,07,03,10,40,22.10
2021,07,03,10,41,22.10
2021,07,03,10,42,22.10
2021,07,03,10,43,22.10
2021,07,03,10,44,22.10
2021,07,03,10,45,22.10
2021,07,03,10,46,22.10
2021,07,03,10,47,22.10
2021,07,03,10,48,22.20
2021,07,03,10,49,22.30
2021,07,03,10,50,22.30
2021,07,03,10,51,22.30
2021,07,03,10,52,22.30
2021,07,03,10,53,22.30
2021,07,03,10,54,22.30
2021,07,03,10,55,22.30
2021,07,03,10,56,22.30
2021,07,03,10,57,22.40
2021,07,03,10,58,22.40
2021,07,03,10,59,22.40
2021,07,03,11,00,22.40
2021,07,03,11,01,22.40
2021,07,03,11,02,22.30
2021,07,03,11,03,22.30
2021,07,03,11,04,22.30
2021,07,03,11,05,22.30
2021,07,03,11,06,22.30
2021,07,03,11,07,22.30
2021,07,03,11,08,22.30
2021,07,03,11,09,22.30
2021,07,03,11,10,22.30
2021,07,03,11,11,22.30
2021,07,03,11,12,22.30
2021,07,03,11,13,22.30
2021,07,03,11,14,22.30
2021,07,03,11,15,22.40
2021,07,03,11,16,22.40
2021,07,03,11,17,22.50
2021,07,03,11,18,22.50
2021,07,03,11,19,22.60
2021,07,03,11,20,22.50
2021,07,03,11,21,22.50
2021,07,03,11,22,22.50
2021,07,03,11,23,22.40
2021,07,03,11,24,22.40
2021,07,03,11,25,22.40
2021,07,03,11,26,22.40
2021,07,03,11,27,22.40
2021,07,03,11,28,22.40
2021,07,03,11,29,22.40
2021,07,03,11,30,22.50
2021,07,03,11,31,22.60
2021,07,03,11,32,22.60
2021,07,03,11,33,22.60
2021,07,03,11,34,22.60
2021,07,03,11,35,22.70
2021,07,03,11,36,22.80
2021,07,03,11,37,22.80
2021,07,03,11,38,22.90
2021,07,03,11,39,22.90
2021,07,03,11,40,23.00
2021,07,03,11,41,23.00
2021,07,03,11,42,23.00
2021,07,03,11,43,22.90
2021,07,03,11,44,22.90
2021,07,03,11,45,22.90
2021,07,03,11,46,23.00
2021,07,03,11,47,23.10
2021,07,03,11,48,23.20
2021,07,03,11,49,23.20
2021,07,03,11,50,23.20
2021,07,03,11,51,23.30
2021,07,03,11,52,23.30
2021,07,03,11,53,23.40
2021,07,03,11,54,23.50
2021,07,03,11,55,23.60
2021,07,03,11,56,23.60
2021,07,03,11,57,23.60
2021,07,03,11,58,23.70
2021,07,03,11,59,23.70
2021,07,03,12,00,23.70
2021,07,03,12,01,23.80
2021,07,03,12,02,23.90
2021,07,03,12,03,24.00
2021,07,03,12,04,24.10
2021,07,03,12,05,24.20
2021,07,03,12,06,24.10
2021,07,03,12,07,24.10
2021,07,03,12,08,24.10
2021,07,03,12,09,24.10
2021,07,03,12,10,24.10
2021,07,03,12,11,24.00
2021,07,03,12,12,23.90
2021,07,03,12,13,23.90
2021,07,03,12,14,23.90
2021,07,03,12,15,23.90
2021,07,03,12,16,23.90
2021,07,03,12,17,23.90
2021,07,03,12,18,24.00
2021,07,03,12,19,24.00
2021,07,03,12,20,24.10
2021,07,03,12,21,24.20
2021,07,03,12,22,24.20
2021,07,03,12,23,24.20
2021,07,03,12,24,24.10
2021,07,03,12,25,24.10
2021,07,03,12,26,24.10
2021,07,03,12,27,24.10
2021,07,03,12,28,24.00
2021,07,03,12,29,24.00
2021,07,03,12,30,23.90
2021,07,03,12,31,23.80
2021,07,03,12,32,23.80
2021,07,03,12,33,23.80
2021,07,03,12,34,23.80
2021,07,03,12,35,23.90
2021,07,03,12,36,24.00
2021,07,03,12,37,24.10
2021,07,03,12,38,24.20
2021,07,03,12,39,24.20
2021,07,03,12,40,24.20
2021,07,03,12,41,24.20
2021,07,03,12,42,24.10
2021,07,03,12,43,24.20
2021,07,03,12,44,24.20
2021,07,03,12,45,24.20
2021,07,03,12,46,24.10
2021,07,03,12,47,24.00
2021,07,03,12,48,23.90
2021,07,03,12,49,23.90
2021,07,03,12,50,23.90
2021,07,03,12,51,23.90
2021,07,03,12,52,23.90
2021,07,03,12,53,23.90
2021,07,03,12,54,23.80
2021,07,03,12,55,23.90
2021,07,03,12,56,23.80
2021,07,03,12,57,23.80
2021,07,03,12,58,23.80
2021,07,03,12,59,23.90
2021,07,03,13,00,24.00
2021,07,03,13,01,24.10
2021,07,03,13,02,24.20
2021,07,03,13,03,24.30
2021,07,03,13,04,24.40
2021,07,03,13,05,24.50
2021,07,03,13,06,24.60
2021,07,03,13,07,24.60
2021,07,03,13,08,24.70
2021,07,03,13,09,24.80
2021,07,03,13,10,24.80
2021,07,03,13,11,24.80
2021,07,03,13,12,24.80
2021,07,03,13,13,24.70
2021,07,03,13,14,24.70
2021,07,03,13,15,24.60
2021,07,03,13,16,24.50
2021,07,03,13,17,24.50
2021,07,03,13,18,24.50
2021,07,03,13,19,24.50
2021,07,03,13,20,24.50
2021,07,03,13,21,24.40
2021,07,03,13,22,24.30
2021,07,03,13,23,24.30
2021,07,03,13,24,24.10
2021,07,03,13,25,24.00
2021,07,03,13,26,23.90
2021,07,03,13,27,23.90
2021,07,03,13,28,23.90
2021,07,03,13,29,24.10
2021,07,03,13,30,24.20
2021,07,03,13,31,24.30
2021,07,03,13,32,24.40
2021,07,03,13,33,24.50
2021,07,03,13,34,24.40
2021,07,03,13,35,24.30
2021,07,03,13,36,24.30
2021,07,03,13,37,24.30
2021,07,03,13,38,24.30
2021,07,03,13,39,24.20
2021,07,03,13,40,24.20
2021,07,03,13,41,24.20
2021,07,03,13,42,24.10
2021,07,03,13,43,24.10
2021,07,03,13,44,24.10
2021,07,03,13,45,24.20
2021,07,03,13,46,24.20
2021,07,03,13,47,24.30
2021,07,03,13,48,24.30
2021,07,03,13,49,24.40
2021,07,03,13,50,24.40
2021,07,03,13,51,24.50
2021,07,03,13,52,24.50
2021,07,03,13,53,24.60
2021,07,03,13,54,24.60
2021,07,03,13,55,24.60
2021,07,03,13,56,24.50
2021,07,03,13,57,24.50
2021,07,03,13,58,24.50
2021,07,03,13,59,24.40
2021,07,03,14,00,24.40
2021,07,03,14,01,24.40
2021,07,03,14,02,24.40
2021,07,03,14,03,24.30
2021,07,03,14,04,24.30
2021,07,03,14,05,24.30
2021,07,03,14,06,24.30
2021,07,03,14,07,24.40
2021,07,03,14,08,24.40
2021,07,03,14,09,24.40
2021,07,03,14,10,24.40
2021,07,03,14,11,24.50
2021,07,03,14,12,24.50
2021,07,03,14,13,24.50
2021,07,03,14,14,24.60
2021,07,03,14,15,24.70
2021,07,03,14,16,24.80
2021,07,03,14,17,24.80
2021,07,03,14,18,24.90
2021,07,03,14,19,24.80
2021,07,03,14,20,24.80
2021,07,03,14,21,24.80
2021,07,03,14,22,24.70
2021,07,03,14,23,24.70
2021,07,03,14,24,24.70
2021,07,03,14,25,24.70
2021,07,03,14,26,24.80
2021,07,03,14,27,24.80
2021,07,03,14,28,24.80
2021,07,03,14,29,24.70
2021,07,03,14,30,24.70
2021,07,03,14,31,24.60
2021,07,03,14,32,24.60
2021,07,03,14,33,24.60
2021,07,03,14,34,24.60
2021,07,03,14,35,24.60
2021,07,03,14,36,24.60
2021,07,03,14,37,24.60
2021,07,03,14,38,24.50
2021,07,03,14,39,24.50
2021,07,03,14,40,24.60
2021,07,03,14,41,24.60
2021,07,03,14,42,24.60
2021,07,03,14,43,24.70
2021,07,03,14,44,24.70
2021,07,03,14,45,24.70
2021,07,03,14,46,24.80
2021,07,03,14,47,24.70
2021,07,03,14,48,24.60
2021,07,03,14,49,24.60
2021,07,03,14,50,24.60
2021,07,03,14,51,24.70
2021,07,03,14,52,24.80
2021,07,03,14,53,24.80
2021,07,03,14,54,24.80
2021,07,03,14,55,24.80
2021,07,03,14,56,24.80
2021,07,03,14,57,24.80
2021,07,03,14,58,24.90
2021,07,03,14,59,24.90
2021,07,03,15,00,24.90
2021,07,03,15,01,24.90
2021,07,03,15,02,24.90
2021,07,03,15,03,24.90
2021,07,03,15,04,25.00
2021,07,03,15,05,25.10
2021,07,03,15,06,25.00
2021,07,03,15,07,24.90
2021,07,03,15,08,24.90
2021,07,03,15,09,24.90
2021,07,03,15,10,24.90
2021,07,03,15,11,25.00
2021,07,03,15,12,24.90
2021,07,03,15,13,24.90
2021,07,03,15,14,24.80
2021,07,03,15,15,24.80
2021,07,03,15,16,24.80
2021,07,03,15,17,24.90
2021,07,03,15,18,24.90
2021,07,03,15,19,25.00
2021,07,03,15,20,25.10
2021,07,03,15,21,25.10
2021,07,03,15,22,25.20
2021,07,03,15,23,25.20
2021,07,03,15,24,25.30
2021,07,03,15,25,25.30
2021,07,03,15,26,25.30
2021,07,03,15,27,25.30
2021,07,03,15,28,25.20
2021,07,03,15,29,25.20
2021,07,03,15,30,25.10
2021,07,03,15,31,25.10
2021,07,03,15,32,25.10
2021,07,03,15,33,25.10
2021,07,03,15,34,25.20
2021,07,03,15,35,25.30
2021,07,03,15,36,25.40
2021,07,03,15,37,25.30
2021,07,03,15,38,25.20
2021,07,03,15,39,25.10
2021,07,03,15,40,24.90
2021,07,03,15,41,24.90
2021,07,03,15,42,24.90
2021,07,03,15,43,24.90
2021,07,03,15,44,25.00
2021,07,03,15,45,25.00
2021,07,03,15,46,25.10
2021,07,03,15,47,25.10
2021,07,03,15,48,25.20
2021,07,03,15,49,25.30
2021,07,03,15,50,25.30
2021,07,03,15,51,25.20
2021,07,03,15,52,25.20
2021,07,03,15,53,25.20
2021,07,03,15,54,25.20
2021,07,03,15,55,25.20
2021,07,03,15,56,25.20
2021,07,03,15,57,25.10
2021,07,03,15,58,25.10
2021,07,03,15,59,25.10
2021,07,03,16,00,25.10
2021,07,03,16,01,25.10
2021,07,03,16,02,25.10
2021,07,03,16,03,25.10
2021,07,03,16,04,25.10
2021,07,03,16,05,25.10
2021,07,03,16,06,25.10
2021,07,03,16,07,25.10
2021,07,03,16,08,25.10
2021,07,03,16,09,25.00
2021,07,03,16,10,24.90
2021,07,03,16,11,24.80
2021,07,03,16,12,24.80
2021,07,03,16,13,24.80
2021,07,03,16,14,24.90
2021,07,03,16,15,24.90
2021,07,03,16,16,24.90
2021,07,03,16,17,24.80
2021,07,03,16,18,24.80
2021,07,03,16,19,24.70
2021,07,03,16,20,24.70
2021,07,03,16,21,24.70
2021,07,03,16,22,24.80
2021,07,03,16,23,24.80
2021,07,03,16,24,24.90
2021,07,03,16,25,24.90
2021,07,03,16,26,25.00
2021,07,03,16,27,25.00
2021,07,03,16,28,24.90
2021,07,03,16,29,25.00
2021,07,03,16,30,25.00
2021,07,03,16,31,25.00
2021,07,03,16,32,24.90
2021,07,03,16,33,24.90
2021,07,03,16,34,24.90
2021,07,03,16,35,25.00
2021,07,03,16,36,25.10
2021,07,03,16,37,25.20
2021,07,03,16,38,25.20
2021,07,03,16,39,25.20
2021,07,03,16,40,25.30
2021,07,03,16,41,25.40
2021,07,03,16,42,25.40
2021,07,03,16,43,25.40
2021,07,03,16,44,25.40
2021,07,03,16,45,25.40
2021,07,03,16,46,25.40
2021,07,03,16,47,25.30
2021,07,03,16,48,25.20
2021,07,03,16,49,25.30
2021,07,03,16,50,25.20
2021,07,03,16,51,25.20
2021,07,03,16,52,25.10
2021,07,03,16,53,25.20
2021,07,03,16,54,25.20
2021,07,03,16,55,25.10
2021,07,03,16,56,25.10
2021,07,03,16,57,25.10
2021,07,03,16,58,25.10
2021,07,03,16,59,25.20
2021,07,03,17,00,25.20
2021,07,03,17,01,25.20
2021,07,03,17,02,25.30
2021,07,03,17,03,25.30
2021,07,03,17,04,25.30
2021,07,03,17,05,25.30
2021,07,03,17,06,25.30
2021,07,03,17,07,25.30
2021,07,03,17,08,25.30
2021,07,03,17,09,25.30
2021,07,03,17,10,25.40
2021,07,03,17,11,25.40
2021,07,03,17,12,25.40
2021,07,03,17,13,25.40
2021,07,03,17,14,25.50
2021,07,03,17,15,25.40
2021,07,03,17,16,25.50
2021,07,03,17,17,25.40
2021,07,03,17,18,25.50
2021,07,03,17,19,25.50